EW4427 Weather Reports


Display with metric or nautical units.
time (UTC)temp
F
wind
direction
speed
MPH
gust
MPH
rain 1hr
in
rain 24hr
in
rain mn
in
humidity
%
barometer
mb
20260831181603 82 180 4.0 7.0 0.00 0.00 0.00 73 1012.3
20260831181045 82 192 4.0 8.0 0.00 0.00 0.00 74 1012.4
20260831180545 82 168 4.0 8.0 0.00 0.00 0.00 74 1012.3
20260831180100 82 178 3.0 8.0 0.00 0.00 0.00 75 1012.3
20260831175547 81 183 3.0 9.0 0.00 0.00 0.00 75 1012.4
20260831175046 81 188 5.0 9.0 0.00 0.00 0.00 75 1012.4
20260831174602 81 187 4.0 11.0 0.00 0.00 0.00 75 1012.4
20260831174046 81 201 4.0 11.0 0.00 0.00 0.00 74 1012.5
20260831173546 81 190 6.0 10.0 0.00 0.00 0.00 73 1012.5
20260831173101 81 192 4.0 12.0 0.00 0.00 0.00 73 1012.7
20260831172545 81 187 4.0 12.0 0.00 0.00 0.00 75 1012.7
20260831172045 80 192 7.0 12.0 0.00 0.00 0.00 74 1012.7
20260831171606 80 234 7.0 12.0 0.00 0.00 0.00 73 1012.6
20260831171045 80 183 4.0 13.0 0.00 0.00 0.00 74 1012.7
20260831170545 80 184 8.0 14.0 0.00 0.00 0.00 73 1012.9
20260831170107 80 181 7.0 14.0 0.00 0.00 0.00 74 1012.8
20260831165544 80 181 7.0 13.0 0.00 0.00 0.00 74 1012.9
20260831165045 80 182 6.0 14.0 0.00 0.00 0.00 74 1012.8
20260831164609 79 192 5.0 15.0 0.00 0.00 0.00 75 1012.8
20260831164045 79 190 8.0 15.0 0.00 0.00 0.00 77 1012.8
20260831163545 79 180 8.0 13.0 0.00 0.00 0.00 77 1012.9
20260831163102 79 182 6.0 13.0 0.00 0.00 0.00 78 1012.9
20260831162546 79 187 7.0 13.0 0.00 0.00 0.00 77 1013.0
20260831162046 78 184 6.0 12.0 0.00 0.00 0.00 77 1013.1
20260831161601 78 178 6.0 14.0 0.00 0.00 0.00 78 1013.1
20260831161045 78 189 7.0 14.0 0.00 0.00 0.00 79 1013.1
20260831160547 78 186 8.0 13.0 0.00 0.00 0.00 79 1013.0
20260831160110 77 194 7.0 13.0 0.00 0.00 0.00 78 1013.1
20260831155546 77 188 6.0 15.0 0.00 0.00 0.00 79 1012.9
20260831155049 77 182 7.0 16.0 0.00 0.00 0.00 80 1013.1
20260831154706 77 186 9.0 16.0 0.00 0.00 0.00 80 1013.0
20260831154045 76 201 10.0 14.0 0.00 0.00 0.00 80 1013.0
20260831153549 76 184 9.0 13.0 0.00 0.00 0.00 81 1013.1
20260831153100 76 189 6.0 12.0 0.00 0.00 0.00 81 1013.2
20260831152545 76 184 6.0 15.0 0.00 0.00 0.00 81 1013.3
20260831152046 75 186 6.0 15.0 0.00 0.00 0.00 81 1013.2
20260831151603 75 179 6.0 12.0 0.00 0.00 0.00 81 1013.1
20260831151047 75 182 7.0 12.0 0.00 0.00 0.00 81 1013.1
20260831150549 75 182 7.0 13.0 0.00 0.00 0.00 81 1013.2
20260831145546 75 196 8.0 12.0 0.00 0.00 0.00 81 1013.3
20260831145045 75 190 7.0 12.0 0.00 0.00 0.00 81 1013.2
20260831144558 75 178 7.0 12.0 0.00 0.00 0.00 82 1013.1
20260831144045 75 191 5.0 12.0 0.00 0.00 0.00 82 1013.2
20260831143545 74 186 5.0 12.0 0.00 0.00 0.00 82 1013.3
20260831143114 74 195 6.0 10.0 0.00 0.00 0.00 82 1013.3
20260831142546 74 188 5.0 11.0 0.00 0.00 0.00 82 1013.3
20260831142045 74 192 7.0 11.0 0.00 0.00 0.00 82 1013.3
20260831141615 74 202 7.0 11.0 0.00 0.00 0.00 82 1013.2
20260831141044 74 189 6.0 11.0 0.00 0.00 0.00 82 1013.1
20260831140545 74 209 6.0 11.0 0.00 0.00 0.00 82 1013.3
20260831140058 74 181 6.0 10.0 0.00 0.00 0.00 82 1013.1
20260831135545 74 190 5.0 11.0 0.00 0.01 0.00 83 1013.2
20260831135045 73 199 5.0 12.0 0.00 0.01 0.00 83 1013.1
20260831134609 73 188 5.0 12.0 0.00 0.01 0.00 83 1013.2
20260831134044 73 179 7.0 12.0 0.00 0.01 0.00 83 1013.1
20260831133545 73 193 4.0 10.0 0.00 0.01 0.00 84 1013.1
20260831133104 73 186 6.0 10.0 0.00 0.01 0.00 84 1013.1
20260831132547 73 185 6.0 11.0 0.00 0.01 0.00 84 1013.0
20260831132045 72 182 7.0 11.0 0.00 0.01 0.00 85 1012.9
20260831131612 72 195 7.0 11.0 0.00 0.01 0.00 86 1013.0
20260831131044 72 198 7.0 10.0 0.00 0.01 0.00 86 1012.8
20260831130544 72 202 7.0 13.0 0.00 0.01 0.00 87 1012.9
20260831130101 72 194 7.0 13.0 0.00 0.01 0.00 88 1012.8
20260831125545 71 194 7.0 10.0 0.00 0.01 0.00 87 1013.0
20260831125045 71 198 6.0 11.0 0.00 0.01 0.00 88 1013.0
20260831124611 71 182 7.0 11.0 0.00 0.01 0.00 88 1013.1
20260831124044 71 190 7.0 11.0 0.00 0.01 0.00 89 1013.1
20260831123544 71 207 7.0 10.0 0.00 0.01 0.00 90 1013.2
20260831123101 71 178 6.0 10.0 0.00 0.01 0.00 90 1013.2
20260831122546 71 196 6.0 10.0 0.00 0.01 0.00 91 1013.1
20260831122045 70 192 6.0 9.0 0.00 0.01 0.00 91 1013.1
20260831121605 70 180 5.0 9.0 0.00 0.01 0.00 92 1013.1
20260831121045 70 195 5.0 9.0 0.00 0.01 0.00 92 1013.1
20260831120545 70 188 5.0 8.0 0.00 0.01 0.00 92 1013.1
20260831120106 70 198 4.0 9.0 0.00 0.01 0.00 92 1013.1
20260831115545 70 189 5.0 9.0 0.00 0.01 0.00 93 1013.1
20260831115044 70 190 5.0 9.0 0.00 0.01 0.00 93 1013.1
20260831114600 70 205 5.0 9.0 0.00 0.01 0.00 93 1013.2
20260831114047 70 196 5.0 8.0 0.00 0.01 0.00 93 1013.3
20260831113545 70 187 5.0 8.0 0.00 0.01 0.00 94 1013.3
20260831113118 70 185 5.0 8.0 0.00 0.01 0.00 94 1013.2
20260831112545 70 180 5.0 8.0 0.00 0.01 0.00 94 1013.1
20260831112044 70 0 0.0 0.0 0.00 0.01 0.00 94 1013.1
20260831111602 70 0 0.0 0.0 0.00 0.01 0.00 94 1013.3
20260831111044 70 0 0.0 0.0 0.00 0.01 0.00 94 1013.3
20260831110544 70 0 0.0 0.0 0.00 0.01 0.00 94 1013.3
20260831110101 70 0 0.0 0.0 0.00 0.01 0.00 94 1013.4
20260831105545 70 0 0.0 0.0 0.00 0.01 0.00 94 1013.5
20260831105045 70 0 0.0 0.0 0.00 0.01 0.00 94 1013.7
20260831104604 70 0 0.0 0.0 0.00 0.01 0.00 94 1013.7
20260831104044 70 0 0.0 0.0 0.00 0.01 0.00 94 1013.7
20260831103544 70 0 0.0 0.0 0.00 0.01 0.00 94 1013.9
20260831103101 70 0 0.0 0.0 0.00 0.01 0.00 94 1013.6
20260831102547 70 0 0.0 0.0 0.00 0.01 0.00 94 1013.9
20260831102044 70 0 0.0 0.0 0.00 0.01 0.00 94 1013.8
20260831101615 70 0 0.0 0.0 0.00 0.01 0.00 94 1013.7
20260831101044 70 0 0.0 0.0 0.00 0.01 0.00 93 1013.6
20260831100543 70 0 0.0 0.0 0.00 0.01 0.00 93 1013.4
20260831100111 70 0 0.0 0.0 0.00 0.01 0.00 93 1013.6
20260831095545 69 0 0.0 0.0 0.00 0.01 0.00 93 1013.6
20260831095044 69 0 0.0 0.0 0.00 0.01 0.00 93 1013.7
20260831094601 69 0 0.0 0.0 0.00 0.01 0.00 93 1013.4
20260831094045 69 0 0.0 0.0 0.00 0.01 0.00 93 1013.3
20260831093547 69 0 0.0 0.0 0.00 0.01 0.00 92 1013.1
20260831093102 69 0 0.0 0.0 0.00 0.01 0.00 92 1013.1
20260831092544 69 0 0.0 0.0 0.00 0.01 0.00 92 1013.1
20260831092046 69 0 0.0 0.0 0.00 0.01 0.00 92 1013.0
20260831091602 69 0 0.0 0.0 0.00 0.01 0.00 92 1013.1
20260831091045 69 0 0.0 0.0 0.00 0.01 0.00 92 1013.2
20260831090544 69 0 0.0 0.0 0.00 0.01 0.00 92 1013.3
20260831090109 70 0 0.0 0.0 0.00 0.01 0.00 92 1013.3
20260831085545 70 0 0.0 0.0 0.00 0.01 0.00 92 1013.3
20260831085044 70 0 0.0 0.0 0.00 0.01 0.00 92 1013.3
20260831084600 70 0 0.0 0.0 0.00 0.01 0.00 92 1013.4
20260831084044 70 0 0.0 0.0 0.00 0.01 0.00 92 1013.4
20260831083543 70 0 0.0 0.0 0.00 0.01 0.00 92 1013.3
20260831083110 70 0 0.0 0.0 0.00 0.01 0.00 92 1013.4
20260831082544 70 0 0.0 0.0 0.00 0.01 0.00 92 1013.3
20260831082044 70 0 0.0 0.0 0.00 0.01 0.00 92 1013.3
20260831081601 70 0 0.0 0.0 0.00 0.01 0.00 92 1013.3
20260831081042 70 0 0.0 0.0 0.00 0.01 0.00 92 1013.4
20260831080544 70 0 0.0 0.0 0.00 0.01 0.00 92 1013.4
20260831080110 70 0 0.0 0.0 0.00 0.01 0.00 92 1013.4
20260831075541 70 0 0.0 0.0 0.00 0.01 0.00 92 1013.5
20260831075047 70 0 0.0 0.0 0.00 0.01 0.00 92 1013.5
20260831074602 70 0 0.0 0.0 0.00 0.01 0.00 92 1013.6
20260831074044 70 0 0.0 0.0 0.00 0.01 0.00 92 1013.7
20260831073543 70 0 0.0 0.0 0.00 0.01 0.00 91 1013.7
20260831073102 70 0 0.0 0.0 0.00 0.01 0.00 91 1013.7
20260831072544 70 0 0.0 0.0 0.00 0.01 0.00 91 1013.8
20260831072043 70 0 0.0 0.0 0.00 0.01 0.00 91 1014.0
20260831071603 70 0 0.0 0.0 0.00 0.01 0.00 91 1014.1
20260831071043 70 0 0.0 0.0 0.00 0.01 0.00 91 1014.1
20260831070544 70 0 0.0 0.0 0.00 0.01 0.00 91 1014.2
20260831070101 71 0 0.0 0.0 0.00 0.01 0.00 91 1014.2
20260831065546 71 0 0.0 0.0 0.00 0.01 0.00 91 1014.4
20260831065045 71 0 0.0 0.0 0.00 0.01 0.00 91 1014.3
20260831064604 71 0 0.0 0.0 0.00 0.01 0.00 91 1014.3
20260831064047 71 0 0.0 0.0 0.00 0.01 0.00 91 1014.4
20260831063547 71 0 0.0 0.0 0.00 0.01 0.00 91 1014.5
20260831063103 71 0 0.0 0.0 0.00 0.01 0.00 91 1014.4
20260831062546 71 0 0.0 0.0 0.00 0.01 0.00 91 1014.4
20260831062046 71 0 0.0 0.0 0.00 0.01 0.00 91 1014.5
20260831061607 71 0 0.0 0.0 0.00 0.01 0.00 91 1014.5
20260831061045 71 0 0.0 0.0 0.00 0.01 0.00 91 1014.5
20260831060545 71 0 0.0 0.0 0.00 0.01 0.00 90 1014.5
20260831060109 71 0 0.0 0.0 0.00 0.01 0.00 90 1014.4
20260831055546 71 0 0.0 0.0 0.00 0.01 0.00 90 1014.5
20260831055046 71 0 0.0 0.0 0.00 0.01 0.00 90 1014.4
20260831054604 71 0 0.0 0.0 0.00 0.01 0.00 90 1014.3
20260831054046 72 0 0.0 0.0 0.00 0.01 0.00 90 1014.4
20260831053547 72 0 0.0 0.0 0.00 0.01 0.00 90 1014.3
20260831053101 72 0 0.0 0.0 0.00 0.01 0.00 90 1014.4
20260831052547 72 0 0.0 0.0 0.00 0.01 0.00 89 1014.4
20260831052046 72 0 0.0 0.0 0.00 0.01 0.00 89 1014.3
20260831051613 72 0 0.0 0.0 0.00 0.01 0.00 89 1014.4
20260831051045 72 0 0.0 0.0 0.00 0.01 0.00 89 1014.2
20260831050544 72 0 0.0 0.0 0.00 0.01 0.00 89 1014.3
20260831050106 72 0 0.0 0.0 0.00 0.01 0.00 89 1014.2
20260831045545 72 0 0.0 0.0 0.00 0.01 0.01 89 1014.3
20260831045047 72 0 0.0 0.0 0.00 0.01 0.01 90 1014.1
20260831044601 72 0 0.0 0.0 0.00 0.01 0.01 90 1014.1
20260831044046 72 0 0.0 0.0 0.00 0.01 0.01 90 1014.1
20260831043545 72 0 0.0 5.0 0.00 0.01 0.01 90 1014.2
20260831043059 72 0 0.0 7.0 0.00 0.01 0.01 90 1014.1
20260831042547 72 185 3.0 8.0 0.00 0.01 0.01 90 1014.0
20260831042046 72 204 5.0 8.0 0.00 0.01 0.01 90 1013.8
20260831041621 72 184 3.0 7.0 0.00 0.01 0.01 90 1013.8
20260831041048 72 198 3.0 9.0 0.00 0.01 0.01 90 1013.9
20260831040547 72 190 4.0 9.0 0.00 0.01 0.01 90 1013.9
20260831040104 72 187 5.0 9.0 0.00 0.01 0.01 90 1013.8
20260831035545 72 188 4.0 9.0 0.00 0.01 0.01 90 1014.0
20260831035044 72 191 3.0 11.0 0.00 0.01 0.01 90 1014.0
20260831034601 72 191 7.0 11.0 0.00 0.01 0.01 90 1013.7
20260831034045 72 193 7.0 10.0 0.00 0.01 0.01 90 1013.8
20260831033544 72 190 7.0 10.0 0.00 0.01 0.01 90 1013.7
20260831033102 72 185 6.0 10.0 0.00 0.01 0.01 91 1013.4
20260831032546 72 178 6.0 8.0 0.00 0.01 0.01 91 1013.9
20260831032048 72 186 5.0 8.0 0.00 0.01 0.01 91 1014.3
20260831031601 72 181 4.0 7.0 0.00 0.01 0.01 90 1014.3
20260831031043 72 186 0.0 1.0 0.00 0.01 0.01 89 1014.5
20260831030545 72 0 0.0 1.0 0.00 0.01 0.01 89 1014.8
20260831030114 72 0 0.0 3.0 0.00 0.01 0.01 90 1014.7
20260831025544 72 0 0.0 5.0 0.00 0.01 0.01 90 1015.0
20260831025044 72 186 2.0 8.0 0.00 0.01 0.01 90 1014.7
20260831024638 72 196 3.0 8.0 0.00 0.01 0.01 90 1014.7
20260831024046 72 185 4.0 8.0 0.00 0.01 0.01 90 1014.4
20260831023546 72 190 2.0 9.0 0.00 0.01 0.01 89 1014.3
20260831023100 72 183 2.0 11.0 0.00 0.01 0.01 90 1014.5
20260831022543 72 179 4.0 11.0 0.00 0.01 0.01 90 1014.5
20260831022043 72 200 7.0 11.0 0.00 0.01 0.01 90 1014.0
20260831021604 72 184 6.0 11.0 0.00 0.01 0.01 90 1014.2
20260831021044 72 187 6.0 11.0 0.00 0.01 0.01 91 1014.2
20260831020546 72 194 4.0 7.0 0.00 0.01 0.01 91 1014.3
20260831020059 72 194 3.0 11.0 0.00 0.01 0.01 91 1014.4
20260831015545 72 188 5.0 11.0 0.00 0.01 0.01 91 1014.5
20260831015045 72 185 7.0 11.0 0.00 0.01 0.01 92 1014.0
20260831014612 71 186 4.0 13.0 0.00 0.01 0.01 91 1014.3
20260831014046 71 202 5.0 13.0 0.00 0.01 0.01 92 1014.5
20260831013546 71 182 4.0 10.0 0.00 0.01 0.01 91 1014.3
20260831013113 71 180 4.0 6.0 0.00 0.01 0.01 92 1014.7
20260831012546 71 189 3.0 6.0 0.00 0.01 0.01 91 1014.7
20260831012047 71 186 2.0 6.0 0.00 0.01 0.01 91 1014.8
20260831011605 71 195 1.0 6.0 0.00 0.01 0.01 91 1014.8
20260831011046 71 176 3.0 7.0 0.00 0.01 0.01 91 1014.6
20260831010546 71 188 4.0 7.0 0.00 0.01 0.01 92 1014.3
20260831010105 71 193 4.0 8.0 0.00 0.01 0.01 92 1014.0
20260831005546 71 192 3.0 8.0 0.00 0.01 0.01 92 1014.0
20260831005046 71 202 4.0 8.0 0.00 0.01 0.01 92 1013.9
20260831004602 71 196 4.0 6.0 0.00 0.01 0.01 91 1014.1
20260831004046 71 188 2.0 5.0 0.00 0.01 0.01 91 1014.2
20260831003547 71 180 2.0 5.0 0.00 0.01 0.01 91 1014.2
20260831003059 71 200 2.0 5.0 0.00 0.01 0.01 91 1014.0
20260831002546 71 190 2.0 5.0 0.00 0.01 0.01 91 1013.9
20260831002046 72 200 3.0 6.0 0.00 0.01 0.01 91 1014.0
20260831001607 72 192 2.0 8.0 0.00 0.01 0.01 91 1013.9
20260831001046 72 184 3.0 8.0 0.00 0.01 0.01 91 1013.9
20260831000547 72 181 3.0 8.0 0.00 0.01 0.01 91 1013.7
20260831000105 72 190 3.0 10.0 0.00 0.01 0.01 91 1013.8
20260830235546 72 184 4.0 10.0 0.00 0.01 0.01 91 1013.6
20260830235046 72 191 5.0 10.0 0.00 0.01 0.01 91 1013.6
20260830234608 72 201 5.0 10.0 0.00 0.01 0.01 91 1013.6
20260830234049 72 207 6.0 10.0 0.00 0.01 0.01 91 1013.5
20260830233546 72 198 4.0 8.0 0.00 0.01 0.01 91 1013.5
20260830233106 72 178 4.0 7.0 0.00 0.01 0.01 91 1013.5
20260830232546 72 198 3.0 11.0 0.00 0.01 0.01 91 1013.7
20260830232047 72 181 4.0 11.0 0.00 0.01 0.01 91 1013.8
20260830231605 72 188 6.0 13.0 0.00 0.01 0.01 91 1013.6
20260830231049 72 190 7.0 13.0 0.00 0.01 0.01 91 1013.5
20260830230545 72 193 5.0 9.0 0.00 0.01 0.01 92 1013.7
20260830230104 72 201 5.0 9.0 0.00 0.01 0.01 92 1013.8
20260830225546 72 167 3.0 6.0 0.00 0.01 0.01 92 1013.9
20260830225046 72 186 2.0 4.0 0.00 0.01 0.01 92 1014.0
20260830224610 72 192 1.0 4.0 0.00 0.01 0.01 93 1013.9
20260830224046 72 173 1.0 6.0 0.00 0.01 0.01 93 1013.9
20260830223546 72 192 1.0 6.0 0.00 0.01 0.01 93 1013.8
20260830223105 72 199 3.0 6.0 0.00 0.01 0.01 93 1013.7
20260830222546 72 188 2.0 6.0 0.00 0.01 0.01 93 1013.8
20260830222046 72 195 2.0 5.0 0.00 0.01 0.01 93 1013.7
20260830221603 71 0 0.0 1.0 0.00 0.01 0.01 92 1013.8
20260830221046 71 0 0.0 2.0 0.00 0.01 0.01 92 1013.9
20260830220546 71 199 0.0 2.0 0.00 0.01 0.01 92 1013.9
20260830220103 71 199 0.0 2.0 0.00 0.01 0.01 92 1013.9
20260830215547 71 199 0.0 2.0 0.00 0.01 0.01 91 1014.0
20260830215048 71 0 0.0 1.0 0.00 0.01 0.01 91 1013.9
20260830214605 71 0 0.0 1.0 0.00 0.01 0.01 91 1013.8
20260830214048 71 0 0.0 1.0 0.00 0.01 0.01 90 1013.9
20260830213546 71 0 0.0 1.0 0.00 0.01 0.01 90 1013.8
20260830213057 71 0 0.0 2.0 0.00 0.01 0.01 90 1013.8
20260830212544 71 0 0.0 2.0 0.00 0.01 0.01 90 1013.7
20260830212046 71 199 0.0 4.0 0.00 0.01 0.01 90 1013.5
20260830211602 71 199 1.0 6.0 0.00 0.01 0.01 90 1013.6
20260830211044 72 195 2.0 6.0 0.00 0.01 0.01 90 1013.4
20260830210545 72 194 2.0 6.0 0.00 0.01 0.01 90 1013.5
20260830210101 72 0 0.0 4.0 0.00 0.01 0.01 89 1013.5
20260830205544 72 184 1.0 4.0 0.00 0.01 0.01 89 1013.6
20260830205044 72 173 0.0 4.0 0.00 0.01 0.01 89 1013.7
20260830204603 72 0 1.0 4.0 0.00 0.01 0.01 89 1013.7
20260830204049 72 199 2.0 3.0 0.00 0.01 0.01 89 1013.7
20260830203544 72 0 1.0 4.0 0.00 0.01 0.01 88 1013.5
20260830203123 72 185 1.0 5.0 0.00 0.01 0.01 88 1013.8
20260830202546 72 195 2.0 5.0 0.00 0.01 0.01 88 1013.8
20260830202043 72 169 2.0 6.0 0.00 0.01 0.01 88 1013.7
20260830201615 72 178 3.0 6.0 0.00 0.01 0.01 87 1013.8
20260830201045 73 191 3.0 5.0 0.00 0.01 0.01 87 1013.9
20260830200544 73 200 3.0 5.0 0.00 0.01 0.01 86 1013.9
20260830200057 73 200 2.0 7.0 0.00 0.01 0.01 85 1014.0
20260830195544 74 206 2.0 7.0 0.00 0.01 0.01 85 1014.0
20260830195044 74 178 3.0 6.0 0.00 0.01 0.01 84 1014.3
20260830194608 75 184 1.0 6.0 0.00 0.01 0.01 83 1014.4
20260830194044 75 180 1.0 6.0 0.00 0.01 0.01 83 1014.3
20260830193544 75 198 2.0 5.0 0.00 0.01 0.01 83 1014.3
20260830193106 75 186 1.0 5.0 0.00 0.01 0.01 82 1014.4
20260830192544 76 180 3.0 7.0 0.00 0.01 0.01 82 1014.2
20260830192044 76 191 3.0 7.0 0.00 0.01 0.01 80 1014.3
20260830191603 77 185 4.0 9.0 0.00 0.01 0.01 79 1014.3
20260830191044 77 180 3.0 10.0 0.00 0.01 0.01 78 1014.3
20260830190544 78 173 4.0 10.0 0.00 0.01 0.01 77 1014.3
20260830185544 79 178 4.0 10.0 0.00 0.01 0.01 74 1014.0
20260830185044 79 194 4.0 12.0 0.00 0.01 0.01 75 1013.9
20260830184559 79 175 6.0 12.0 0.00 0.01 0.01 74 1013.8
20260830184044 80 186 8.0 12.0 0.00 0.01 0.01 73 1013.6
20260830183545 80 169 4.0 13.0 0.00 0.01 0.01 74 1013.6
20260830183112 80 182 7.0 15.0 0.00 0.01 0.01 72 1013.7
20260830182545 80 176 6.0 15.0 0.00 0.01 0.01 71 1013.5
20260830182046 81 201 7.0 14.0 0.00 0.01 0.01 72 1013.4